Time,TemperatureF,DewpointF,PressureIn,WindDirection,WindDirectionDegrees,WindSpeedMPH,WindSpeedGustMPH,Humidity,HourlyPrecipIn,Conditions,Clouds,dailyrainin,SoftwareType,DateUTC
2014-01-05 01:08:00,14.7,7.9,29.94,East,90,8.0,-999.0,74,-99.99,,,0.00,meteohub,2014-01-05 07:08:00,
2014-01-05 01:09:00,14.5,7.7,29.94,NE,45,4.0,-999.0,74,-99.99,,,0.00,meteohub,2014-01-05 07:09:00,
2014-01-05 01:14:00,14.5,8.1,29.94,NE,45,11.0,11.0,75,0.00,,,0.00,meteohub,2014-01-05 07:14:00,
2014-01-05 01:16:00,14.5,8.1,29.94,SW,225,8.0,11.0,75,0.00,,,0.00,meteohub,2014-01-05 07:16:00,
2014-01-05 01:19:00,14.4,7.9,29.95,North,0,9.0,11.0,75,0.00,,,0.00,meteohub,2014-01-05 07:19:00,
2014-01-05 01:23:00,14.4,7.9,29.95,WSW,248,10.0,11.0,75,0.00,,,0.00,meteohub,2014-01-05 07:23:00,
2014-01-05 01:28:00,14.2,7.7,29.96,NE,45,5.0,11.0,75,0.00,,,0.00,meteohub,2014-01-05 07:28:00,
2014-01-05 01:33:00,14.2,7.7,29.97,NW,315,11.0,11.0,75,0.00,,,0.00,meteohub,2014-01-05 07:33:00,
2014-01-05 01:39:00,14.2,8.1,29.97,East,90,8.0,11.0,76,0.00,,,0.00,meteohub,2014-01-05 07:39:00,
2014-01-05 01:44:00,14.0,7.9,29.97,North,0,4.0,11.0,76,0.00,,,0.00,meteohub,2014-01-05 07:44:00,
2014-01-05 01:49:00,14.0,7.9,29.98,NE,45,4.0,11.0,76,0.00,,,0.00,meteohub,2014-01-05 07:49:00,
2014-01-05 01:54:00,14.0,7.9,29.99,South,180,8.0,9.0,76,0.00,,,0.00,meteohub,2014-01-05 07:54:00,
2014-01-05 01:59:00,13.8,7.7,29.98,SW,225,6.0,10.0,76,0.00,,,0.00,meteohub,2014-01-05 07:59:00,
2014-01-05 02:04:00,13.8,7.7,29.98,North,0,8.0,12.0,76,0.00,,,0.00,meteohub,2014-01-05 08:04:00,
2014-01-05 02:09:00,13.5,7.3,29.97,North,0,17.0,17.0,76,0.00,,,0.00,meteohub,2014-01-05 08:09:00,
2014-01-05 02:14:00,13.5,7.3,29.97,North,0,10.0,17.0,76,0.00,,,0.00,meteohub,2014-01-05 08:14:00,
2014-01-05 02:19:00,13.5,7.3,29.97,NNE,23,4.0,17.0,76,0.00,,,0.00,meteohub,2014-01-05 08:19:00,
2014-01-05 02:24:00,13.3,7.2,29.99,WNW,293,6.0,17.0,76,0.00,,,0.00,meteohub,2014-01-05 08:24:00,
2014-01-05 02:29:00,13.3,7.3,29.99,NW,315,8.0,13.0,77,0.00,,,0.00,meteohub,2014-01-05 08:29:00,
2014-01-05 02:34:00,13.1,7.3,29.99,WSW,248,8.0,12.0,77,0.00,,,0.00,meteohub,2014-01-05 08:34:00,
2014-01-05 02:39:00,13.1,7.3,29.99,East,90,4.0,12.0,77,0.00,,,0.00,meteohub,2014-01-05 08:39:00,
2014-01-05 02:44:00,12.9,7.2,29.99,NW,315,8.0,14.0,77,0.00,,,0.00,meteohub,2014-01-05 08:44:00,
2014-01-05 02:49:00,12.9,7.2,29.99,NE,45,7.0,14.0,77,0.00,,,0.00,meteohub,2014-01-05 08:49:00,
2014-01-05 02:54:00,12.9,7.2,29.99,NE,45,9.0,14.0,77,0.00,,,0.00,meteohub,2014-01-05 08:54:00,
2014-01-05 02:59:00,12.9,7.2,30.00,NE,45,13.0,13.0,77,0.00,,,0.00,meteohub,2014-01-05 08:59:00,
2014-01-05 03:04:00,12.9,7.2,30.00,NE,45,13.0,13.0,77,0.00,,,0.00,meteohub,2014-01-05 09:04:00,
2014-01-05 03:09:00,12.9,7.2,30.00,West,270,2.0,13.0,77,0.00,,,0.00,meteohub,2014-01-05 09:09:00,
2014-01-05 03:15:00,12.9,7.2,30.00,North,0,4.0,13.0,77,0.00,,,0.00,meteohub,2014-01-05 09:15:00,
2014-01-05 03:20:00,12.9,7.2,30.00,SW,225,8.0,13.0,77,0.00,,,0.00,meteohub,2014-01-05 09:20:00,
2014-01-05 03:25:00,12.7,7.0,29.99,NE,45,4.0,13.0,77,0.00,,,0.00,meteohub,2014-01-05 09:25:00,
2014-01-05 03:30:00,12.7,7.0,29.98,ESE,113,8.0,10.0,77,0.00,,,0.00,meteohub,2014-01-05 09:30:00,
2014-01-05 03:35:00,12.6,6.8,29.98,NW,315,11.0,11.0,77,0.00,,,0.00,meteohub,2014-01-05 09:35:00,
2014-01-05 03:40:00,12.4,6.6,29.98,WNW,293,7.0,11.0,77,0.00,,,0.00,meteohub,2014-01-05 09:40:00,
2014-01-05 03:45:00,12.0,6.3,29.98,North,0,7.0,15.0,77,0.00,,,0.00,meteohub,2014-01-05 09:45:00,
2014-01-05 03:50:00,11.8,6.1,29.99,East,90,5.0,15.0,77,0.00,,,0.00,meteohub,2014-01-05 09:50:00,
2014-01-05 03:55:00,11.8,5.7,29.98,East,90,6.0,11.0,76,0.00,,,0.00,meteohub,2014-01-05 09:55:00,
2014-01-05 04:00:00,11.7,5.5,29.99,SW,225,5.0,11.0,76,0.00,,,0.00,meteohub,2014-01-05 10:00:00,
2014-01-05 04:05:00,11.7,5.5,29.99,SW,225,5.0,10.0,76,0.00,,,0.00,meteohub,2014-01-05 10:05:00,
2014-01-05 04:10:00,11.3,5.2,29.99,SW,225,8.0,17.0,76,0.00,,,0.00,meteohub,2014-01-05 10:10:00,
2014-01-05 04:15:00,11.3,5.2,29.99,SE,135,4.0,17.0,76,0.00,,,0.00,meteohub,2014-01-05 10:15:00,
2014-01-05 04:20:00,11.1,5.0,29.99,North,0,8.0,17.0,76,0.00,,,0.00,meteohub,2014-01-05 10:20:00,
2014-01-05 04:25:00,11.1,5.0,29.99,North,0,12.0,16.0,76,0.00,,,0.00,meteohub,2014-01-05 10:25:00,